This demonstration page uses our WeatherBlox Daily Observations layout. Learn more.

Left ArrowRight Arrow

44.8408, -93.29828

Hourly Observations for September 27, 2018

Temp ( °F °C ) Dew Point ( °F °C ) Humidity (%) Winds ( mph kmh ) Pressure ( in mb ) Visibility ( mi km ) Precip ( " mm )
12:53 am 00:53 Cloudy 59 15 38 3.3 46 46 SSW 9 15 29.91 1013 10 16 0.00 0.00
1:53 am 01:53 Cloudy 58 14.4 38 3.3 48 48 SW 13 20 29.89 1012 10 16 0.00 0.00
2:53 am 02:53 Cloudy 59 15 38 3.3 46 46 SSW 17 28 29.87 1012 10 16 0.00 0.00
3:53 am 03:53 Cloudy 60 15.6 39 3.9 46 46 SW 13 20 29.84 1011 10 16 0.00 0.00
4:53 am 04:53 Cloudy 58 14.4 41 5 53 53 SW 8 13 29.86 1011 10 16 0.00 0.03
5:53 am 05:53 Cloudy 58 14.4 41 5 53 53 SSW 6 9 29.85 1011 10 16 0.00 0.00
6:53 am 06:53 Cloudy 56 13.3 42 5.6 60 60 S 7 11 29.83 1010 10 16 0.00 0.00
7:53 am 07:53 Cloudy 56 13.3 43 6.1 62 62 S 6 9 29.82 1010 10 16 0.00 0.00
8:53 am 08:53 Cloudy 57 13.9 44 6.7 62 62 WSW 8 13 29.83 1010 10 16 0.00 0.00
9:53 am 09:53 Cloudy 58 14.4 45 7.2 62 62 W 5 7 29.82 1010 10 16 0.00 0.00
10:53 am 10:53 Cloudy 57 13.9 46 7.8 67 67 WSW 6 9 29.82 1010 10 16 0.00 0.00
11:53 am 11:53 Cloudy 58 14.4 46 7.8 65 65 SW 9 15 29.84 1010 10 16 0.00 0.00
12:53 pm 12:53 Cloudy 59 15 48 8.9 67 67 WSW 8 13 29.83 1010 10 16 0.00 0.00
1:53 pm 13:53 Cloudy 60 15.6 49 9.4 67 67 NW 8 13 29.84 1011 10 16 0.00 0.00
2:53 pm 14:53 Cloudy 61 16.1 47 8.3 60 60 W 7 11 29.83 1010 10 16 0.00 0.00
3:53 pm 15:53 Cloudy 61 16.1 47 8.3 60 60 WNW 10 17 29.83 1010 10 16 0.00 0.00
4:53 pm 16:53 Cloudy 58 14.4 47 8.3 67 67 W 8 13 29.85 1011 10 16 0.00 0.00
5:53 pm 17:53 Mostly Cloudy 59 15 45 7.2 60 60 W 9 15 29.85 1011 10 16 0.00 0.00
6:53 pm 18:53 Mostly Cloudy 57 13.9 45 7.2 64 64 W 8 13 29.88 1012 10 16 0.00 0.00
7:53 pm 19:53 Mostly Cloudy 56 13.3 38 3.3 51 51 NW 15 24 29.91 1013 10 16 0.00 0.00
8:53 pm 20:53 Mostly Cloudy 53 11.7 39 3.9 59 59 WNW 10 17 29.94 1014 10 16 0.00 0.00
9:53 pm 21:53 Mostly Cloudy 52 11.1 39 3.9 61 61 WNW 13 20 29.97 1015 10 16 0.00 0.00
10:53 pm 22:53 Mostly Cloudy 50 10 39 3.9 66 66 NW 10 17 29.98 1015 10 16 0.00 0.00
11:53 pm 23:53 Mostly Cloudy 49 9.4 39 3.9 69 69 W 7 11 30.00 1016 10 16 0.00 0.00

Powered by AerisWeather